Weather History for Washington, MO

Change the Weather History Date:

Sunday, March 3, 2013

  Actual Average (KSTL) Record (KSTL)
Temperature  
Mean Temperature 26 °F 42 °F  
Max Temperature 37 °F 51 °F 85 °F (1974)
Min Temperature 14 °F 32 °F 1 °F (1943)
Degree Days  
Heating Degree Days 40 24  
Month to date heating degree days 72  
Since 1 July heating degree days 3670  
Cooling Degree Days 0 0  
Month to date cooling degree days 0  
Year to date cooling degree days 0  
Moisture  
Dew Point 19 °F    
Average Humidity 71    
Maximum Humidity 100    
Minimum Humidity 41    
Precipitation  
Precipitation 0.00 in 0.08 in 1.49 in (1976)
Month to date precipitation 0.25  
Year to date precipitation 4.89  
Snow  
Snow 0.00 in 0.10 in 3.20 in (1965)
Month to date snowfall 0.3  
Since 1 July snowfall 15.3  
Snow Depth -    
Sea Level Pressure  
Sea Level Pressure 30.11 in    
Wind  
Wind Speed 2 mph (SE)    
Max Wind Speed 13 mph    
Max Gust Speed -    
Visibility 9 miles    
Events      
T = Trace of Precipitation, MM = Missing Value Source: NWS Daily Summary

Daily Weather History Graph

Daily Weather History Graph

Search for Another Location

Airport:

Trip Planner

Search our weather history database for the weather conditions in past years. The results will help you decide how hot, cold, wet, or windy it might be!

Date:

Astronomy

Mar. 03, 2013 Rise Set
Actual Time 6:32 AM CST 5:59 PM CST
Civil Twilight 6:06 AM CST 6:25 PM CST
Nautical Twilight 5:35 AM CST 6:56 PM CST
Astronomical Twilight 5:04 AM CST 7:27 PM CST
Moon No Moon Rise 9:52 AM CST (3/3)
Length of Visible Light 12h 19m
Length of Day
11h 26m
Waning Gibbous, 63% of the Moon is Illuminated
Mar 3
Waning Gibbous
Mar 4
Last Quarter
Mar 11
New
Mar 19
First Quarter
Mar 27
Full

Hourly Weather History & Observations

Time (CST) Temp. Windchill Dew Point Humidity Pressure Visibility Wind Dir Wind Speed Gust Speed Precip Events Conditions
12:15 AM 21.2 °F - 17.6 °F 86% 30.22 in 10.0 mi Calm Calm - N/A   Clear
12:35 AM 19.4 °F - 15.8 °F 86% 30.22 in 10.0 mi Calm Calm - N/A   Clear
12:55 AM 17.6 °F - 15.8 °F 93% 30.23 in 10.0 mi Calm Calm - N/A   Clear
1:35 AM 17.6 °F - 15.8 °F 93% 30.23 in 10.0 mi Calm Calm - N/A   Clear
1:55 AM 19.4 °F - 17.6 °F 93% 30.22 in 10.0 mi Calm Calm - N/A   Clear
2:15 AM 19.4 °F - 17.6 °F 93% 30.22 in 10.0 mi Calm Calm - N/A   Clear
2:35 AM 19.4 °F - 17.6 °F 93% 30.21 in 10.0 mi Calm Calm - N/A   Clear
2:55 AM 17.6 °F - 17.6 °F 100% 30.20 in 9.0 mi Calm Calm - N/A   Clear
3:15 AM 17.6 °F - 15.8 °F 93% 30.20 in 8.0 mi Calm Calm - N/A   Clear
3:35 AM 15.8 °F - 15.8 °F 100% 30.19 in 9.0 mi Calm Calm - N/A   Clear
3:55 AM 17.6 °F - 17.6 °F 100% 30.18 in 7.0 mi Calm Calm - N/A   Clear
4:15 AM 17.6 °F - 15.8 °F 93% 30.18 in 8.0 mi Calm Calm - N/A   Clear
4:35 AM 17.6 °F - 15.8 °F 93% 30.18 in 7.0 mi Calm Calm - N/A   Scattered Clouds
4:55 AM 15.8 °F - 15.8 °F 100% 30.18 in 8.0 mi Calm Calm - N/A   Scattered Clouds
5:15 AM 15.8 °F - 14.0 °F 93% 30.19 in 9.0 mi Calm Calm - N/A   Partly Cloudy
5:35 AM 15.8 °F - 14.0 °F 93% 30.19 in 9.0 mi Calm Calm - N/A   Clear
5:55 AM 15.8 °F - 15.8 °F 100% 30.19 in 8.0 mi Calm Calm - N/A   Clear
6:15 AM 14.0 °F - 14.0 °F 100% 30.18 in 10.0 mi Calm Calm - N/A   Partly Cloudy
6:35 AM 15.8 °F - 14.0 °F 93% 30.18 in 8.0 mi Calm Calm - N/A   Clear
6:55 AM 15.8 °F - 15.8 °F 100% 30.19 in 5.0 mi Calm Calm - N/A   Clear
7:15 AM 15.8 °F - 15.8 °F 100% 30.19 in 5.0 mi Calm Calm - N/A   Clear
7:35 AM 17.6 °F - 15.8 °F 93% 30.19 in 5.0 mi Calm Calm - N/A   Clear
7:55 AM 17.6 °F - 17.6 °F 100% 30.19 in 5.0 mi Calm Calm - N/A   Clear
8:15 AM 19.4 °F - 17.6 °F 93% 30.19 in 5.0 mi Calm Calm - N/A   Clear
8:35 AM 21.2 °F - 17.6 °F 86% 30.20 in 7.0 mi Calm Calm - N/A   Clear
8:55 AM 21.2 °F - 17.6 °F 86% 30.19 in 8.0 mi Calm Calm - N/A   Partly Cloudy
9:15 AM 23.0 °F - 19.4 °F 86% 30.19 in 8.0 mi Calm Calm - N/A   Mostly Cloudy
9:35 AM 24.8 °F - 19.4 °F 80% 30.19 in 10.0 mi Calm Calm - N/A   Mostly Cloudy
9:55 AM 26.6 °F - 19.4 °F 74% 30.18 in 10.0 mi Calm Calm - N/A   Partly Cloudy
10:15 AM 28.4 °F - 19.4 °F 69% 30.18 in 10.0 mi Calm Calm - N/A   Partly Cloudy
10:35 AM 28.4 °F - 19.4 °F 69% 30.17 in 10.0 mi Calm Calm - N/A   Mostly Cloudy
10:55 AM 32.0 °F 27.5 °F 21.2 °F 64% 30.17 in 10.0 mi SE 4.6 mph - N/A   Overcast
11:15 AM 32.0 °F 27.5 °F 19.4 °F 60% 30.16 in 10.0 mi SSE 4.6 mph - N/A   Overcast
11:35 AM 32.0 °F - 21.2 °F 64% 30.15 in 10.0 mi Calm Calm - N/A   Overcast
11:55 AM 32.0 °F - 21.2 °F 64% 30.15 in 10.0 mi Calm Calm - N/A   Overcast
12:15 PM 32.0 °F - 21.2 °F 64% 30.13 in 10.0 mi Calm Calm - N/A   Overcast
12:35 PM 33.8 °F 27.7 °F 19.4 °F 56% 30.12 in 10.0 mi SSE 6.9 mph - N/A   Overcast
12:55 PM 35.6 °F 31.7 °F 17.6 °F 48% 30.11 in 10.0 mi SSE 4.6 mph - N/A   Overcast
1:15 PM 35.6 °F 32.8 °F 17.6 °F 48% 30.09 in 10.0 mi SE 3.5 mph - N/A   Scattered Clouds
1:55 PM 37.4 °F 34.9 °F 15.8 °F 41% 30.07 in 10.0 mi SSE 3.5 mph - N/A   Overcast
2:15 PM 37.4 °F 32.8 °F 17.6 °F 45% 30.06 in 10.0 mi SSE 5.8 mph - N/A   Overcast
2:35 PM 37.4 °F 33.8 °F 17.6 °F 45% 30.05 in 10.0 mi ESE 4.6 mph - N/A   Overcast
2:55 PM 37.4 °F - 17.6 °F 45% 30.05 in 10.0 mi Calm Calm - N/A   Overcast
3:15 PM 37.4 °F 33.8 °F 17.6 °F 45% 30.05 in 10.0 mi SE 4.6 mph - N/A   Overcast
3:35 PM 37.4 °F 33.8 °F 17.6 °F 45% 30.05 in 10.0 mi ESE 4.6 mph - N/A   Overcast
3:55 PM 37.4 °F 32.8 °F 19.4 °F 48% 30.04 in 10.0 mi ESE 5.8 mph - N/A   Overcast
4:15 PM 37.4 °F 32.8 °F 19.4 °F 48% 30.04 in 10.0 mi ESE 5.8 mph - N/A   Mostly Cloudy
4:35 PM 37.4 °F 32.8 °F 17.6 °F 45% 30.03 in 10.0 mi ESE 5.8 mph - N/A   Mostly Cloudy
5:15 PM 37.4 °F 32.8 °F 19.4 °F 48% 30.02 in 10.0 mi ESE 5.8 mph - N/A   Mostly Cloudy
5:35 PM 37.4 °F 32.1 °F 19.4 °F 48% 30.02 in 10.0 mi ESE 6.9 mph - N/A   Overcast
5:55 PM 37.4 °F 32.1 °F 21.2 °F 52% 30.02 in 10.0 mi ESE 6.9 mph - N/A   Mostly Cloudy
6:15 PM 37.4 °F 32.1 °F 21.2 °F 52% 30.02 in 10.0 mi ESE 6.9 mph - N/A   Mostly Cloudy
6:35 PM 37.4 °F 32.1 °F 21.2 °F 52% 30.01 in 10.0 mi ESE 6.9 mph - N/A   Overcast
6:55 PM 37.4 °F 32.1 °F 21.2 °F 52% 30.02 in 10.0 mi ESE 6.9 mph - N/A   Overcast
7:15 PM 37.4 °F 32.1 °F 21.2 °F 52% 30.02 in 10.0 mi ESE 6.9 mph - N/A   Overcast
7:35 PM 37.4 °F 32.1 °F 23.0 °F 56% 30.03 in 10.0 mi SE 6.9 mph - N/A   Overcast
7:55 PM 37.4 °F 30.8 °F 23.0 °F 56% 30.01 in 10.0 mi ESE 9.2 mph - N/A   Overcast
8:15 PM 37.4 °F 30.3 °F 23.0 °F 56% 30.01 in 10.0 mi ESE 10.4 mph - N/A   Overcast
8:35 PM 37.4 °F 29.8 °F 23.0 °F 56% 30.01 in 10.0 mi SE 11.5 mph - N/A   Overcast
8:55 PM 37.4 °F 29.8 °F 23.0 °F 56% 30.00 in 10.0 mi SE 11.5 mph - N/A   Overcast
9:15 PM 35.6 °F 28.0 °F 24.8 °F 65% 30.01 in 10.0 mi ESE 10.4 mph - N/A   Overcast
9:35 PM 35.6 °F 28.0 °F 24.8 °F 65% 30.01 in 10.0 mi SE 10.4 mph - N/A   Overcast
9:55 PM 35.6 °F 28.0 °F 24.8 °F 65% 30.00 in 10.0 mi ESE 10.4 mph - N/A   Overcast
10:15 PM 37.4 °F 30.3 °F 24.8 °F 60% 30.00 in 10.0 mi ESE 10.4 mph - N/A   Overcast
10:35 PM 37.4 °F 30.8 °F 24.8 °F 60% 30.01 in 10.0 mi ESE 9.2 mph - N/A   Overcast
10:55 PM 37.4 °F 29.8 °F 24.8 °F 60% 30.00 in 10.0 mi ESE 11.5 mph - N/A   Overcast
11:15 PM 37.4 °F 29.3 °F 24.8 °F 60% 30.00 in 10.0 mi ESE 12.7 mph - N/A   Overcast
11:35 PM 37.4 °F 29.8 °F 24.8 °F 60% 30.00 in 10.0 mi SE 11.5 mph - N/A   Overcast
11:55 PM 35.6 °F 28.0 °F 24.8 °F 65% 30.00 in 10.0 mi SE 10.4 mph - N/A   Overcast